Hoquiam, WA
on Saturday, January 12, 2013

Saturday
Previous Day Next Day
Daily Summary
 ActualAverageRecord
Temperature
Mean Temperature °F 43°F  
Max Temperature 39°F 47°F 58°F (1986)
Min Temperature 28°F 38°F 17°F (1963)
Degree Days
Heating Degree Days 32 22  
Month to date heating degree days 275  
Cooling Degree Days 0 0  
Month to date cooling degree days 0  
Year to date cooling degree days 0  
Moisture
Dew Point 28°F   
Average Humidity 85    
Maximum Humidity 96    
Minimum Humidity 65    
Precipitation
Precipitation 0.00 in 0.35 in 2.01 in (2006)
Month to date precipitation 4.22  
Year to date precipitation 4.22  
Wind
Wind Speed 5 mph   
Max Wind Speed 10 mph   
Max Gust Speed mph   
Visibility 10 miles   
Events     

Key: T is trace of precipitation, MM is missing value
Source: NWS Daily Summary
Time(PST)TemperatureDew PointHumidity Pressure Visibility Wind DirectionWind SpeedGust SpeedPrecipitationEvents Conditions
12:53 AM 30.0°F 27.0°F 88% 30.32 in 10.0 miles ENE 4.6 mph - N/A   Partly Cloudy
1:53 AM 30.0°F 28.0°F 92% 30.32 in 10.0 miles ENE 5.8 mph - N/A   Overcast
2:53 AM 30.0°F 28.0°F 92% 30.32 in 10.0 miles NE 5.8 mph - N/A   Partly Cloudy
3:53 AM 28.9°F 28.0°F 96% 30.33 in 10.0 miles ENE 5.8 mph - N/A   Mostly Cloudy
4:53 AM 28.9°F 27.0°F 92% 30.33 in 10.0 miles NE 4.6 mph - N/A   Scattered Clouds
5:53 AM 28.0°F 27.0°F 96% 30.33 in 10.0 miles ENE 5.8 mph - N/A   Scattered Clouds
6:53 AM 28.9°F 27.0°F 92% 30.34 in 10.0 miles ENE 4.6 mph - N/A   Mostly Cloudy
7:53 AM 28.0°F 26.1°F 92% 30.36 in 10.0 miles ENE 4.6 mph - N/A   Clear
8:53 AM 30.0°F 28.0°F 92% 30.38 in 10.0 miles NE 6.9 mph - N/A   Partly Cloudy
9:53 AM 30.9°F 28.0°F 89% 30.38 in 10.0 miles ENE 8.1 mph - N/A   Partly Cloudy
10:53 AM 34.0°F 30.0°F 85% 30.39 in 10.0 miles ENE 6.9 mph - N/A   Clear
11:53 AM 36.0°F 30.0°F 79% 30.39 in 10.0 miles East 9.2 mph - N/A   Clear
12:53 PM 37.9°F 28.9°F 70% 30.38 in 10.0 miles East 8.1 mph - N/A   Clear
1:53 PM 37.9°F 27.0°F 65% 30.38 in 10.0 miles East 9.2 mph - N/A   Clear
2:53 PM 39.0°F 28.0°F 65% 30.38 in 10.0 miles East 8.1 mph - N/A   Clear
3:53 PM 37.0°F 28.0°F 70% 30.40 in 10.0 miles ENE 10.4 mph - N/A   Clear
4:53 PM 35.6°F 26.6°F 70% 30.39 in 10.0 miles NE 3.5 mph - N/A   Clear
5:53 PM 34.0°F 26.1°F 73% 30.40 in 10.0 miles NNE 3.5 mph - N/A   Clear
6:53 PM 32.0°F 26.1°F 79% 30.41 in 10.0 miles ENE 3.5 mph - N/A   Clear
7:53 PM 30.0°F 27.0°F 88% 30.43 in 10.0 miles Calm Calm - N/A   Scattered Clouds
8:53 PM 30.0°F 28.0°F 92% 30.42 in 10.0 miles Calm Calm - N/A   Mostly Cloudy
9:53 PM 30.0°F 28.0°F 92% 30.43 in 10.0 miles ENE 3.5 mph - N/A   Overcast
10:53 PM 30.0°F 28.0°F 92% 30.44 in 10.0 miles ENE 4.6 mph - N/A   Overcast
11:53 PM 30.0°F 27.0°F 88% 30.43 in 10.0 miles ENE 4.6 mph - N/A   Clear
Moon Phase
Jan. 12 Jan. 18 Jan. 26 Feb. 03 Feb. 10
Sunrise:07:58 AM (PST) Moon Rise:08:14 AM (PST)1/12
Sunset:04:50 PM (PST) Moon Set:06:34 PM (PST)1/12

Copyright © 2014 The Weather Underground, Inc.